Weather in Kabwe

Zambia     14°26′21″S   28°25′35″E
temp.,
°C
wind,
m/s
gust,
m/s
humid.,
%
clouds,
%
prec.,
mm/h
press.,
hPa
HPBL,
m
14 april, wed
wed1423:00+16e2108799 0.0 1019265
02:00+15e299376 0.0 1018254
05:00+15ese21198100 0.0 1018408
08:00+18ese5108298 0.0 1020890
11:00+23ese575134 0.0 10181350
14:00+25ese45405 0.0 10151720
17:00+23ese36495 0.0 1015708
20:00+17ese210713 0.0 1018227
15 april, thu
thu1523:00+15ene27745 0.0 1018116
02:00+14ese24775 0.0 101777
05:00+13ese23837 0.0 101750
08:00+18ese31067100 0.0 1018512
11:00+24ese474599 0.0 10171379
14:00+25ese453899 0.0 10141800
17:00+23ese355374 0.0 1013566
20:00+17e36735 0.0 1016114
16 april, fri
fri1623:00+15ene22805 0.0 101731
02:00+14e22865 0.0 101625
05:00+14e23870 0.0 101642
08:00+18ese38684 0.0 1018385
11:00+25ese46435 0.0 10161458
14:00+27ese45354 0.0 10131968
17:00+23ese36497 0.0 1013476
20:00+18e3106884 0.0 1017202
17 april, sat
sat1723:00+16e287281 0.0 1017145
02:00+14ese3107127 0.0 1017221
05:00+15ese4146613 0.0 1018714
08:00+17ese6156369 0.0 10201147
11:00+21ese7115250 0.0 10201471
14:00+22ese7105212 0.0 10181755
17:00+19ese4106913 0.1 10181005
20:00+16ese412865 0.1 1020680
18 april, sun
sun1823:00+15e513845 0.0 1021852
02:00+14e4129347 0.0 1021850
05:00+13ese5128795 0.1 1022860
08:00+14e61079100 0.1 1024821
11:00+18ese576599 0.0 10231054
14:00+19ese465892 0.0 10201250
17:00+19ese355981 0.0 10191227
20:00+14ese25804 0.0 1021103